国际通讯卫星 16 星 (INTELSAT 16 (IS-16))

导读 | 星芒AI

INTELSAT 16 (IS-16) 是一颗由波音公司制造的通信卫星,于2000年发射,原定位于东经110度轨道位置,后因故障于2009年移至东经170度。该卫星主要用于提供跨太平洋的固定卫星服务,支持电视广播、数据传输和电话通信。IS-16 配备C波段和Ku波段转发器,设计寿命为13年,但实际在轨运行多年,为多个国家提供关键通信支持。

基本信息
目录编号:
36397
目录名称:
INTELSAT 16
国际标识:
2010-006A
轨道中心:
EARTH
卫星名称:
国际通讯卫星 16 星
卫星全名:
国际通讯卫星 16 星 (INTELSAT 16 (IS-16))
卫星状态:
在轨 (已飞行5738 天)
发射日期:
2010-02-12 UTC
国别 :
(ITSO)
星等 :
--
轨道信息
数据来源 国际轨道数据 AOE轨道数据
星历时间 2025-10-28T20:40:53+0800
18小时前
查看轨道信息
2025-10-29T09:00:00+0800
5小时前
查看轨道信息
半长轴 42164.896km 42165.065km
偏心率 0.0002675 0.0002815
轨道倾角 0.013° 0.011°
近地点辐角 310.428° 308.959°
升交点赤经 280.308° 280.969°
平近点角 280.431° 106.523°
近地点 35775.481km 35775.06km
远地点 35798.041km 35798.8km
周期 1436.105分钟 1436.114分钟
每日圈数 1.002712 1.002706
详细信息
卫星平台:
STAR-2
平衡模式:
三轴稳定
覆盖范围:
全球
运营商:
国际卫星通信公司
运营商所在国:
美国
制造商(研发单位):
轨道ATK公司
制造商所在国:
美国
使用方式:
暂无
卫星简介
从1965年4月至1984年3月,国际通信卫星组织发射了5代、6种不同性能的卫星共计35颗,除6颗卫星因运载火箭和远地点发动机故障而发射失败外,其余29颗卫星均被送到了预定的静止轨道位置。1984年8月前后,国际通信卫星组织利用部署在大西洋、太平洋、印度洋上空的15颗国际通信卫星,为遍布世界各地170多个国家或地区提供电话、电传、电报、电视和数据传输等电信业务;该卫星仍在工作。
2D轨道图
3D轨道图
轨道高度分析图
轨道倾角分析图
轨道综合分析图
查看轨道综合分析图